Regional Weather Roundup
Issued by NWS

Home | Current Version | Previous Version | Graphics & Text | Print | Product List | Glossary On
Versions: 1 2 3 4 5 6 7 8 9 10 11 12 13 14 15 16 17 18 19 20 21 22 23 24 25 26 27 28 29 30 31 32 33 34 35 36 37 38 39 40 41 42 43 44 45 46 47 48 49 50
000
ASUS45 KBOU 201207
RWRCO

WEATHER ROUNDUP FOR COLORADO
NATIONAL WEATHER SERVICE DENVER/BOULDER CO
500 AM MST MON FEB 20 2017

NOTE: "FAIR" INDICATES FEW OR NO CLOUDS BELOW 12000 FEET WITH NO
SIGNIFICANT WEATHER AND/OR OBSTRUCTIONS TO VISIBILITY.

COZ001>005-013-030-031-201300-
...NORTHWEST COLORADO...

CITY           SKY/WX    TMP DP  RH WIND       PRES   REMARKS
CRAIG          CLOUDY    25  23  92 CALM      30.07R FOG
HAYDEN         CLOUDY    25  19  80 CALM      30.05R VSB 1/4
MEEKER         MOCLDY    27  25  92 CALM      30.08R
MOUNT WERNER   NOT AVBL
STEAMBOAT SPGS MOCLDY    27  26  97 CALM      30.05R
WALDEN         NOT AVBL
$$

COZ006>008-011-201300-
...WEST CENTRAL VALLEYS...

CITY           SKY/WX    TMP DP  RH WIND       PRES   REMARKS
GRAND JUNCTION CLOUDY    38  38 100 E9        30.09R
MONTROSE       MOCLDY    31  30  96 S6        30.12R WCI  25
EAGLE          CLOUDY    30  28  93 N3        30.10R FOG
RIFLE          CLOUDY    36  35  96 W7        30.08R
DELTA          CLOUDY    39  37  92 CALM      30.11R
NUCLA          CLOUDY    32  32 100 E6        30.15R WCI  26
$$

COZ017>023-064>068-201300-
...SOUTHWEST COLORADO...

CITY           SKY/WX    TMP DP  RH WIND       PRES   REMARKS
DURANGO        MOCLDY    28  24  85 N7        30.08R WCI  21
CORTEZ         FAIR      31  31 100 CALM      30.12R
PAGOSA SPRINGS FOG       25  25 100 SW3       30.07R VSB 3/4
TELLURIDE      NOT AVBL
WOLF CREEK PAS FAIR      12  12 100 N3        30.12R
$$

COZ009-010-012-014-032>034-037-058>063-201300-
...CENTRAL COLORADO...

CITY           SKY/WX    TMP DP  RH WIND       PRES   REMARKS
ASPEN          CLOUDY    28  27  96 CALM      30.05R
BUENA VISTA    FAIR      28  16  60 NW5       30.02R WCI  23
COPPER MTN     FAIR      18  12  79 MISG      30.01R
BERTHOUD PASS  FAIR       9   0  66 MISG      29.89R
COTTONWOOD PAS FAIR      28  14  54 W8        30.02R WCI  20
GUNNISON       FAIR      26  22  84 W7        30.06R WCI  18
KREMMLING      FAIR      27  21  80 CALM      30.06R
LEADVILLE      FAIR      16  10  77 N6        30.02R WCI   7
MONARCH PASS   FOG       18  14  86 W22       30.12R VSB 1/4 WCI   0
SALIDA         FAIR      34  18  51 NW6       30.07R WCI  29
SUNLIGHT       NOT AVBL
WILKERSON PASS FAIR      18   5  57 NW15G26   30.02R WCI   3
$$

COZ069>075-201300-
...SAN LUIS VALLEY/SANGRE DE CRISTO MOUNTAINS...

CITY           SKY/WX    TMP DP  RH WIND       PRES   REMARKS
ALAMOSA        FAIR      26  22  84 CALM      30.03R
LA VETA PASS   FAIR      23  19  86 NE24G30   30.00R WCI   7
SAGUACHE       MOCLDY    32  21  64 N7        30.05R WCI  26
$$

COZ035-036-038>040-201300-
...NORTHERN COLORADO FRONT RANGE...

CITY           SKY/WX    TMP DP  RH WIND       PRES   REMARKS
DENVER INTL AP FAIR      25  19  78 E8        29.91R WCI  16
DMNS CITY PARK   N/A     44  12  27 W9G16     29.91R
AURORA         PTCLDY    38  15  40 W9        29.92R
FRONT RANGE AP FAIR      34  23  64 CALM      29.92R
ERIE MUNI ARPT FAIR      45  11  25 W16G25    29.91R
BOULDER MUN AP FAIR      45  12  26 SW7       29.90R
CENTENNIAL     FAIR      42  11  28 W16       29.92R
BROOMFIELD     FAIR      39  12  33 W6        29.93R
FORT COLLINS   FAIR      47  12  24 NW15G28   29.90R
LONGMONT       FAIR      35  19  52 CALM      29.91R
$$

COZ041-046-047-076>085-087-088-201300-
...PIKES PEAK/PALMER DIVIDE AND SOUTHERN FOOTHILLS...

CITY           SKY/WX    TMP DP  RH WIND       PRES   REMARKS
COLO. SPRINGS  FAIR      34  14  43 N9        29.94R WCI  27
A. F. ACADEMY  FAIR      35  11  37 N9G17     29.93R WCI  28
SCHRIEVER AFB  FAIR      34  16  48 NW12      29.94R WCI  25
ELLICOTT       FAIR     N/A N/A N/A CALM      29.92R
FALCON         FAIR      31  14  49 NW9       29.94R WCI  22
FORT CARSON    FAIR      38  20  50 SW5       29.92R
LIMON          FAIR      37  19  48 NW18      29.88R
MONUMENT HILL  FAIR      30  14  51 W12       29.95R WCI  21
TRINIDAD       FAIR      36  19  50 NW6       29.92R
$$

COZ042>045-048>051-090-091-201300-
...NORTHEAST COLORADO...

CITY           SKY/WX    TMP DP  RH WIND       PRES   REMARKS
GREELEY ARPT   FAIR      39  18  42 N12       29.90R
AKRON          FAIR      40  16  37 NW22G29   29.85R
BURLINGTON     FAIR      43  23  45 NW14      29.83R
WRAY           NOT AVBL
STERLING       FAIR      45  19  36 NW22G33   29.84R
HOLYOKE        FAIR      46  23  39 NW15G24   29.81R
FORT MORGAN    FAIR      41  18  39 NW16G22   29.89R
$$

COZ086-089-092>099-201300-
...SOUTHEAST COLORADO...

CITY           SKY/WX    TMP DP  RH WIND       PRES   REMARKS
PUEBLO         FAIR      40  30  67 CALM      29.92R
LA JUNTA       FAIR      42  30  62 NW12      29.88R
LAMAR          CLOUDY    46  33  60 W10       29.83R
SPRINGFIELD      N/A     43  32  65 NW18      29.83R
$$



USA.gov is the U.S. government's official web portal to all federal, state and local government web resources and services.